INTELSAT 10 (IS-10)

Last updated on Sat Jun 21 2025 00:02:42 GMT+0000 (Coordinated Universal Time)

1 26766U 01019A 25170.90932770 -.00000001 00000+0 00000+0 0 9990 2 26766 8.2054 62.9539 0003076 12.7771 226.0885 1.00267959 41985
UTC large
Height (km)
Speed (km/s)
/
Latitude / Longitude
Inclination (degrees)
Orbital Period (minutes)
Azimuth
Elevation
Range (km)
Doppler Factor

Next 0 passes for location: London (51.5072 / 0.1276)

Sorry there are no passes over London.